Location: Newark
(43.4306°N, 0.3089°E)
Time: 15:21:54
(UTC+00:00)

Vanguard 3 - Pass Details

Date: 31 August 2019
Orbit: 508 x 3262 km, 33.3° (Epoch: 23 October)

Event Time Altitude Azimuth Distance (km) Brightness Sun altitude
Rises 13:59:59 0° 235° (SW) 6,806 12.6 46.3°
Reaches altitude 10° 14:05:23 10° 229° (SW) 5,454 12.4 45.6°
Maximum altitude 14:18:41 40° 168° (SSE) 2,590 10.5 43.8°
Drops below altitude 10° 14:26:47 10° 103° (ESE) 3,354 10.1 42.6°
Sets 14:29:17 0° 95° (E) 4,023 10.4 42.2°
